Loging...

KPDC, Korea Polar Data Center

Korea Polar Data Center Scientific observations and results from Antarctica shall
be exchanged and made freely available

Keyword Search

Advanced Search

Search 29,316 data out of 29,316

Metadata Search Results1
No. Title Reg. Date
601 [KOPRI-ROCK-00002149]SB171127-2E 2021-09-30
602 [KOPRI-ROCK-00002148]SB171127-2D 2021-09-30
603 [KOPRI-ROCK-00002147]SB171127-2C 2021-09-30
604 [KOPRI-ROCK-00002146]SB171127-2B 2021-09-30
605 [KOPRI-ROCK-00002145]SB171127-2A 2021-09-30
606 [KOPRI-ROCK-00002144]SB171127-1E 2021-09-30
607 [KOPRI-ROCK-00002143]SB171127-1D 2021-09-30
608 [KOPRI-ROCK-00002142]SB171127-1C 2021-09-30
609 [KOPRI-ROCK-00002141]SB171127-1B 2021-09-30
610 [KOPRI-ROCK-00002140]SB171127-1A 2021-09-30
611 [KOPRI-KPDC-00001795]Ship-borne radiosonde observation data over the Arctic Ocean in the 2021 Araon summer expedition(ARA12A) 2021-09-30
612 [KOPRI-KPDC-00001794]Ship-borne radiosonde observation data over the Arctic Ocean in the 2021 Araon summer expedition(ARA12B,ARA12C) 2021-09-30
613 [KOPRI-KPDC-00001788]Genome information of pathogenic fungi isolated from diseased plants identified in KGI, Antarctic Peninsula 2021-09-30
614 [KOPRI-KPDC-00001787]Cryo-Raman microscope image of ice grain boundaries in the present of cryoprotectant 2021-09-29
615 [KOPRI-KPDC-00001786]Cryo-Raman chemical mapping image of peroxymonosulfate 2021-09-29
616 [KOPRI-KPDC-00001785]Cryo-Raman chemical mapping image of organic pollutants in frozen solution 2021-09-29
617 [KOPRI-KPDC-00001784]HPLC-MS data of 4-chlorophenol decomposition experiment in ice 2021-09-29
618 [KOPRI-KPDC-00001783]ICP-OES analysis data of mineral formation experiment in ice 2021-09-29
619 [KOPRI-KPDC-00001782]Ion chromatography data of freezing/thawing experiment 2021-09-29
620 [KOPRI-KPDC-00001774]Weddell Seal hair sample (196296) 2021-09-28
621 [KOPRI-KPDC-00001772]Weddell Seal hair sample (196290) 2021-09-28
622 [KOPRI-KPDC-00001771]Weddell Seal hair sample (196295) 2021-09-28
623 [KOPRI-KPDC-00001770]Weddell Seal hair sample (196294) 2021-09-28
624 [KOPRI-KPDC-00001769]Weddell Seal hair sample (196293) 2021-09-28
625 [KOPRI-KPDC-00001768]Weddell Seal hair sample (196292) 2021-09-28
626 [KOPRI-KPDC-00001767]Weddell Seal hair sample (196291) 2021-09-28
627 [KOPRI-KPDC-00001766]Weddell Seal hair sample (196297) 2021-09-28
628 [KOPRI-KPDC-00001765]Weddell Seal hair sample (196298) 2021-09-28
629 [KOPRI-KPDC-00001764]Weddell Seal placental sample (JBG201101-PL) 2021-09-28
630 [KOPRI-KPDC-00001763]Weddell Seal placental sample (JBG201106-PL) 2021-09-28
631 [KOPRI-KPDC-00001762]Weddell Seal amniotic fluid sample (JBG201106-AF) 2021-09-28
632 [KOPRI-KPDC-00001761]Weddell Seal amniotic fluid sample (JBG201101-AF) 2021-09-28
633 [KOPRI-KPDC-00001760]Weddell Seal blood sample (JBG200925-1) 2021-09-28
634 [KOPRI-KPDC-00001759]Weddell Seal blood sample (JBG200925-2) 2021-09-28
635 [KOPRI-KPDC-00001758]Weddell Seal blood sample (JBG200925-3) 2021-09-28
636 [KOPRI-KPDC-00001757]Weddell Seal blood sample (JBG200925-6) 2021-09-28
637 [KOPRI-KPDC-00001756]Weddell Seal fecal sample (83543) 2021-09-28
638 [KOPRI-KPDC-00001755]Weddell Seal fecal sample (196290) 2021-09-28
639 [KOPRI-KPDC-00001754]Weddell Seal fecal sample (196295) 2021-09-28
640 [KOPRI-KPDC-00001753]CTD Profile (wd16-330-20) 2021-09-28
641 [KOPRI-KPDC-00001752]CTD Profile (wd16-333-20) 2021-09-28
642 [KOPRI-KPDC-00001750]CTD Profile (wd16-335-20) 2021-09-28
643 [KOPRI-KPDC-00001748]CTD Profile (wd16-337-20) 2021-09-28
644 [KOPRI-KPDC-00001743]CTD Profile (wd16-348-20) 2021-09-28
645 [KOPRI-KPDC-00001742]CTD Profile (wd16-349-20) 2021-09-28
646 [KOPRI-KPDC-00001732]CTD Profiles (wd16-329-20) 2021-09-28
647 [KOPRI-KPDC-00001731]Weddell Seal blood sample (JBG200925-4) 2021-09-28
648 [KOPRI-KPDC-00001730]Weddell Seal hair sample (196289) 2021-09-28
649 [KOPRI-KPDC-00001720]Weddell Seal blood sample (JBG200925-5) 2021-09-28
650 [KOPRI-KPDC-00001729]Weddell Seal hair sample (83535) 2021-09-28
651 [KOPRI-KPDC-00001728]Weddell Seal hair sample (83543) 2021-09-28
652 [KOPRI-KPDC-00001727]Weddell Seal hair sample (83540) 2021-09-28
653 [KOPRI-KPDC-00001726]Weddell Seal hair sample (83539) 2021-09-28
654 [KOPRI-KPDC-00001725]Weddell Seal hair sample (83536) 2021-09-28
655 [KOPRI-KPDC-00001724]Weddell Seal hair sample (83533) 2021-09-28
656 [KOPRI-KPDC-00001723]Weddell Seal hair sample (83529) 2021-09-28
657 [KOPRI-KPDC-00001722]Weddell Seal hair sample (83542) 2021-09-28
658 [KOPRI-KPDC-00001721]Weddell Seal fecal sample (83532) 2021-09-28
659 [KOPRI-KPDC-00001718]Weddell Seal hair sample (83532) 2021-09-28
660 [KOPRI-KPDC-00001708]Temporal variation of marine phytoplankton in the surface water of the Antarctic Jang Bogo Station in Terra Nova Bay, January 2021 - June 2021 2021-09-27
661 [KOPRI-KPDC-00001705]Wind data on ARAON DaDis for Arctic cruise, 2021 2021-09-27
662 [KOPRI-KPDC-00001704]Weather data on ARAON DaDis for Arctic cruise, 2021 2021-09-27
663 [KOPRI-KPDC-00001703]Thermosalinograph data on ARAON DaDis for Arctic cruise, 2021 2021-09-27
664 [KOPRI-KPDC-00001702]Motion sensor data on ARAON DaDis for Arctic cruise, 2021 2021-09-27
665 [KOPRI-KPDC-00001701]Gyro compass data on ARAON DaDis for Arctic cruise, 2021 2021-09-27
666 [KOPRI-KPDC-00001700]GPS data on ARAON DaDis for Arctic cruise, 2021 2021-09-27
667 [KOPRI-KPDC-00001699]Fluorometer data on ARAON DaDis for Arctic cruise, 2021 2021-09-27
668 [KOPRI-KPDC-00001695]Condensation Particle Counter Concentration(CPC 3776 and 3772) at King Sejong Station collected in 2020.11-2021.08 2021-09-24
669 [KOPRI-KPDC-00001694]Chlorophyll-a concentration from the Ross Sea, Antarctica, 2020 2021-09-24
670 [KOPRI-KPDC-00001693]Temporal variation of phytoplankton in the surface water of Marian Cove, King George Island, Antarctica, January 2021 - August 2021 2021-09-24
671 [KOPRI-KPDC-00001679]The complete mitochondrial genome of the Arctic fairy shrimp Branchinecta paludosa (Anostraca, Branchinectidae) from Sirius Passet, North Greenland 2021-09-10
672 [KOPRI-KVH-00004593]Myriogramme manginii (Gain) Skottsberg (KOPRI-CH4014) 2021-08-19
673 [KOPRI-KVH-00004592]Gymnogongrus turquetii Hariot 1907 (KOPRI-CH4013) 2021-08-19
674 [KOPRI-KVH-00004591]Gymnogongrus turquetii Hariot 1907 (KOPRI-CH4012) 2021-08-19
675 [KOPRI-KVH-00004590]Acrosiphonia arcta (Dillwyn) Gain (KOPRI-CH4011) 2021-08-19
676 [KOPRI-KVH-00004589]Pantoneura plocamioides Kylin (KOPRI-CH4010) 2021-08-19
677 [KOPRI-KVH-00004588]Petroderma maculiforme (Wollny) Kuckuck (KOPRI-CH4009) 2021-08-19
678 [KOPRI-KVH-00004587]Trematocarpus antarcticus (Hariot) Fredericq & R.L.Moe (KOPRI-CH4008) 2021-08-19
679 [KOPRI-KVH-00004586]Acrosiphonia arcta (Dillwyn) Gain (KOPRI-CH4007) 2021-08-19
680 [KOPRI-KVH-00004585]Desmarestia menziesii J. Agardh (KOPRI-CH4006) 2021-08-19
681 [KOPRI-KVH-00004584]Desmarestia menziesii J. Agardh (KOPRI-CH4005) 2021-08-19
682 [KOPRI-KVH-00004583]Desmarestia anceps Montagne 1842 (KOPRI-CH4004) 2021-08-19
683 [KOPRI-KVH-00004582]Desmarestia anceps Montagne 1842 (KOPRI-CH4003) 2021-08-19
684 [KOPRI-KVH-00004581]Desmarestia anceps Montagne 1842 (KOPRI-CH4002) 2021-08-19
685 [KOPRI-KVH-00004580]Desmarestia anceps Montagne 1842 (KOPRI-CH4001) 2021-08-19
686 [KOPRI-KVH-00004579]Desmarestia anceps Montagne 1842 (KOPRI-CH4000) 2021-08-19
687 [KOPRI-KVH-00004578]Desmarestia anceps Montagne 1842 (KOPRI-CH3999) 2021-08-19
688 [KOPRI-KVH-00004577]Desmarestia anceps Montagne 1842 (KOPRI-CH3998) 2021-08-19
689 [KOPRI-KVH-00004576]Desmarestia anceps Montagne 1842 (KOPRI-CH3997) 2021-08-19
690 [KOPRI-KVH-00004575]Desmarestia anceps Montagne 1842 (KOPRI-CH3996) 2021-08-19
691 [KOPRI-KVH-00004574]Desmarestia menziesii J. Agardh (KOPRI-CH3995) 2021-08-19
692 [KOPRI-KVH-00004573]Desmarestia menziesii J. Agardh (KOPRI-CH3994) 2021-08-19
693 [KOPRI-KVH-00004572]Adenocystis utricularis (Bory) Skottsberg (KOPRI-CH3993) 2021-08-19
694 [KOPRI-KVH-00004571]Antarctosaccion applanatum on Plocamium cartilagineum (Gain) Delépine 1970 (KOPRI-CH3992) 2021-08-19
695 [KOPRI-KVH-00004570]Iridaea cordata (Turner) Bory de Saint-Vincent (KOPRI-CH3991) 2021-08-19
696 [KOPRI-KVH-00004569]Gigartina skottsbergii Setchell et Gardner (KOPRI-CH3990) 2021-08-19
697 [KOPRI-KVH-00004568]Iridaea cordata (Turner) Bory de Saint-Vincent (KOPRI-CH3989) 2021-08-19
698 [KOPRI-KVH-00004567]Picconiella plumosa (Kylin) J.De Toni (KOPRI-CH3988) 2021-08-19
699 [KOPRI-KVH-00004566]Picconiella plumosa (Kylin) J.De Toni (KOPRI-CH3987) 2021-08-19
700 [KOPRI-KVH-00004565]Plocamium cartilagineum (Linnaeus) P.S. Dixon (KOPRI-CH3986) 2021-08-19